Flag for USA

Past Weather in 32°17'45"N, 81°14'05"W, USA — Yesterday and Last 2 Weeks

Now
78 °F

Passing clouds.


Feels Like: 81 °F
Forecast: 89 / 76 °F
Wind: 5 mph from South

Location: Hunter U. S. Army Airfield
Current Time: Aug 14, 2020 at 10:38:36 pm
Latest Report: Aug 14, 2020 at 8:56 pm
Visibility: 10 mi
Pressure29.92 "Hg
Humidity: 90%
Dew Point: 75 °F
Location of 32°17'45"N, 81°14'05"WLocation

Past Weather in 32°17'45"N, 81°14'05"W — Graph

°F

32°17'45"N, 81°14'05"W Temperature Yesterday

Maximum temperature yesterday: 93 °F (at 2:56 pm)
Minimum temperature yesterday: 76 °F (at 4:56 am)
Average temperature yesterday: 82 °F

High & Low Weather Summary for the Past Weeks

 TemperatureHumidityPressure
High96 °F (Jul 31, 4:56 pm)94% (Jul 31, 5:56 am)30.16 "Hg (Jul 31, 5:56 am)
Low72 °F (Aug 10, 3:56 am)44% (Aug 1, 2:56 pm)29.80 "Hg (Aug 3, 4:56 pm)
Average82 °F79%29.99 "Hg
* Reported Jul 30 8:56 pm — Aug 14 8:56 pm, 32°17'45"N, 81°14'05"W. Weather by CustomWeather, © 2020

Note: Actual official high and low records may vary slightly from our data, if they occured in-between our weather recording intervals... More about our weather records

32°17'45"N, 81°14'05"W Weather History for the Previous 24 Hours

Scroll right to see more
 ConditionsComfort  
Time TempWeatherWind HumidityBarometerVisibility
8:56 pm
Fri, Aug 14
78 °FPassing clouds.5 mph90%29.92 "Hg10 mi
7:56 pm79 °FSunny.5 mph89%29.90 "Hg10 mi
6:56 pm78 °FScattered clouds.5 mph89%29.91 "Hg10 mi
5:56 pm78 °FThundershowers. Scattered clouds.6 mph88%29.92 "Hg10 mi
5:30 pm77 °FThundershowers. Broken clouds.7 mph89%29.92 "Hg10 mi
5:13 pm77 °FThunderstorms. Mostly cloudy.9 mph83%29.90 "Hg3 mi
4:56 pm87 °FThunderstorms. Partly sunny.20 mph68%29.89 "Hg10 mi
3:56 pm89 °FScattered clouds.14 mph65%29.90 "Hg10 mi
2:56 pm94 °FSunny.10 mph51%29.92 "Hg10 mi
1:56 pm90 °FBroken clouds.5 mph57%29.95 "Hg10 mi
12:56 pm92 °FPassing clouds.7 mph54%29.96 "Hg10 mi
11:56 am90 °FSunny.7 mph57%29.98 "Hg10 mi
10:56 am86 °FScattered clouds.12 mph59%29.96 "Hg10 mi
8:56 am79 °FScattered clouds.7 mph74%29.98 "Hg10 mi
7:56 am79 °FSunny.7 mph74%29.99 "Hg10 mi
6:56 am75 °FSunny.7 mph78%29.98 "Hg10 mi
5:56 am75 °FPassing clouds.7 mph83%29.95 "Hg10 mi
5:00 am79 °FPassing clouds.7 mph89%29.98 "Hg10 mi
3:56 am79 °FPassing clouds.7 mph89%29.97 "Hg10 mi
3:00 am79 °FPassing clouds.7 mph89%29.97 "Hg10 mi
2:00 am79 °FPassing clouds.7 mph89%29.98 "Hg10 mi
12:59 am79 °FPassing clouds.7 mph84%29.99 "Hg10 mi
11:55 pm
Thu, Aug 13
79 °FPassing clouds.7 mph84%29.99 "Hg10 mi
10:56 pm79 °FOvercast.5 mph82%30.00 "Hg10 mi
Weather by CustomWeather, © 2020

See weather overview